Simultaneous Nadir Overpasses (SNOs) Predictions

Prediction of SNOs between GOES-16 and NOAA-19 Satellite Orbit:

Table of predicted SNOs for the next 14.0 days since TLE Epoch: 5/15/2020
Index Date Time (GOES-16) GOES-16 Lat,Lon NOAA-19 Lat,Lon Distance(km) Time Diff (sec)
1 05/17/2020 11:00:17 0.02, -75.22 0.50, -77.27 234.20 80
2 05/18/2020 10:45:57 0.02, -75.22 -0.17, -74.42 92.32 80
3 05/19/2020 10:34:16 0.02, -75.23 -0.85, -71.57 418.96 80
4 05/20/2020 23:07:03 -0.02, -75.23 -1.02, -79.40 477.60 80
5 05/21/2020 22:55:24 -0.01, -75.24 -0.30, -76.56 150.85 80
6 05/22/2020 22:46:23 -0.01, -75.25 0.36, -73.71 176.01 80
7 05/25/2020 11:07:17 0.00, -75.31 0.76, -78.66 381.74 80
8 05/26/2020 10:55:37 0.00, -75.32 0.08, -75.81 54.76 80
9 05/27/2020 10:41:15 -0.00, -75.33 -0.53, -72.94 272.53 80




NCC Satellite Simultaneous Nadir Overpasses (SNOs) Prediction Service
